Hourly Data Report for April 16, 2018

TORONTO CITY
ONTARIO
Current Station Operator: ECCC - MSC

43°40'00.000" N
79°24'00.000" W
112.50 m
6158355
71508
XTO

Download Data

Hourly Data (April 2018)
Hourly Data Report for April 16, 2018
TIME
LST
Temp Definition
°C
Dew Point Definition
°C
Rel Hum Definition
%
Precip. Amount Definition
mm

Wind Dir Definition
10's deg

Wind Spd Definition
km/h
Visibility Definition
km
Stn Press Definition
kPa
Hmdx Definition


Wind Chill Definition


Weather Definition


00:00 1.3 0.2 93 10.1 LegendMM LegendMM   99.45     LegendNANA
01:00 1.4 0.3 92 2.7 LegendMM LegendMM   99.37     LegendNANA
02:00 1.6 0.4 92 3.5 LegendMM LegendMM   99.25     LegendNANA
03:00 1.6 0.5 92 2.3 LegendMM LegendMM   99.07     LegendNANA
04:00 1.7 0.6 92 1.0 LegendMM LegendMM   98.99     LegendNANA
05:00 1.8 0.7 93 1.9 LegendMM LegendMM   98.93     LegendNANA
06:00 1.9 0.9 93 3.0 LegendMM LegendMM   98.78     LegendNANA
07:00 2.0 0.9 93 0.7 LegendMM LegendMM   98.70     LegendNANA
08:00 2.3 1.2 93 1.5 LegendMM LegendMM   98.77     LegendNANA
09:00 2.3 1.5 94 1.8 LegendMM LegendMM   98.70     LegendNANA
10:00 2.6 1.7 94 1.9 LegendMM LegendMM   98.69     LegendNANA
11:00 2.7 1.9 94 1.4 LegendMM LegendMM   98.61     LegendNANA
12:00 3.5 2.6 94 1.0 LegendMM LegendMM   98.54     LegendNANA
13:00 3.9 2.5 91 1.0 LegendMM LegendMM   98.55     LegendNANA
14:00 3.6 2.1 90 1.5 LegendMM LegendMM   98.54     LegendNANA
15:00 3.0 1.3 88 1.0 LegendMM LegendMM   98.57     LegendNANA
16:00 2.7 0.8 88 1.2 LegendMM LegendMM   98.62     LegendNANA
17:00 2.3 0.7 89 1.3 LegendMM LegendMM   98.70     LegendNANA
18:00 2.7 0.4 85 0.6 LegendMM LegendMM   98.71     LegendNANA
19:00 2.7 0.1 83 0.0 LegendMM LegendMM   98.74     LegendNANA
20:00 2.5 -0.3 81 0.2 LegendMM LegendMM   98.76     LegendNANA
21:00 1.8 -0.1 87 0.5 LegendMM LegendMM   98.80     LegendNANA
22:00 1.1 -0.1 91 1.2 LegendMM LegendMM   98.80     LegendNANA
23:00 1.6 0.3 91 0.3 LegendMM LegendMM   98.83     LegendNANA

Notes on Data Quality.

Legend

  • E = Estimated
  • M = Missing
  • NA = Not Available*
  • [empty] = Indicates an unobserved value
Date modified: